User: anonymous   Login
Location: Peebles
(55.6412°N, 3.1714°W)
Time: 07:31:23
(UTC+00:00)
Language:

Meteor 1-15 Rocket - Orbit

View from above orbital plane
View from above orbital plane
View from above satellite
View from above satellite

Ground track
Ground track

The orbit data is extracted from the following two-line orbital elements,

1 06660U 73034B   21336.93972824  .00000037  00000-0  14836-4 0  9990
2 06660  81.2322 227.8470 0046626 190.0204 170.0040 14.05872344487119
Epoch (UTC): 02 December 2021 22:33:12
Eccentricity: 0.0046626
inclination: 81.2322°
perigee height: 840 km
apogee height: 907 km
right ascension of ascending node: 227.8470°
argument of perigee: 190.0204°
revolutions per day: 14.05872344
mean anomaly at epoch: 170.0040°
orbit number at epoch: 48711

The dashed part of the orbit path shows where the satellite is in the earth's shadow,  

DLR